DL9LAF-4 Weather Reports


time (UTC)temp
F
wind
direction
speed
knots
gust
knots
rain 1hr
in
rain 24hr
in
rain mn
in
humidity
%
barometer
mb
20260507083556 53 67 0.0 0.0 0.00 0.00 0.00 73 993.4
20260507082556 53 67 0.0 0.0 0.00 0.00 0.00 75 993.2
20260507081556 52 67 0.0 0.0 0.00 0.00 0.00 76 993.2
20260507080556 51 90 0.0 0.0 0.00 0.00 0.00 78 993.2
20260507075556 51 67 0.0 0.0 0.00 0.00 0.00 79 993.2
20260507074556 50 67 0.0 0.0 0.00 0.00 0.00 81 993.2
20260507073556 49 67 0.0 0.0 0.00 0.00 0.00 82 993.0
20260507072556 49 90 0.0 0.0 0.00 0.00 0.00 83 993.0
20260507071556 48 67 0.0 0.0 0.00 0.00 0.00 84 992.9
20260507070556 47 67 0.0 0.0 0.00 0.00 0.00 85 992.9
20260507065556 46 67 0.0 0.0 0.00 0.00 0.00 86 992.5
20260507064556 46 67 0.0 0.0 0.00 0.00 0.00 86 992.5
20260507063556 45 67 0.0 0.0 0.00 0.00 0.00 86 992.5
20260507062556 44 67 0.0 0.0 0.00 0.00 0.00 86 992.5
20260507061556 43 270 159.0 0.0 0.00 0.00 0.00 86 992.2
20260507060556 43 45 0.0 0.0 0.00 0.00 0.00 86 992.2
20260507055556 42 45 0.0 0.0 0.00 0.00 0.00 85 992.2
20260507054556 41 45 0.0 0.0 0.00 0.00 0.00 85 992.2
20260507053556 41 45 0.0 0.0 0.00 0.00 0.00 85 992.2
20260507052556 40 45 0.0 0.0 0.00 0.00 0.00 85 992.2
20260507051556 39 45 0.0 0.0 0.00 0.00 0.00 85 992.0
20260507050556 39 45 0.0 0.0 0.00 0.00 0.00 84 992.0
20260507045556 39 45 0.0 0.0 0.00 0.00 0.00 84 991.9
20260507044556 38 270 159.0 0.0 0.00 0.00 0.00 84 991.7
20260507043556 38 270 159.0 0.0 0.00 0.00 0.00 83 991.5
20260507042556 38 45 0.0 0.0 0.00 0.00 0.00 83 991.4
20260507041556 38 45 0.0 0.0 0.00 0.00 0.00 83 991.2
20260507040556 38 45 0.0 0.0 0.00 0.00 0.00 83 991.2
20260507035556 38 45 0.0 0.0 0.00 0.00 0.00 82 991.2
20260507034556 38 45 0.0 0.0 0.00 0.00 0.00 82 991.2
20260507033556 38 45 0.0 0.0 0.00 0.00 0.00 82 991.0
20260507032556 38 45 0.0 0.0 0.00 0.00 0.00 82 991.0
20260507031556 38 270 159.0 0.0 0.00 0.00 0.00 82 990.9
20260507030556 38 337 79.1 0.0 0.00 0.00 0.00 82 991.0
20260507025556 39 270 159.0 0.0 0.00 0.00 0.00 81 990.9
20260507024556 39 270 159.0 0.0 0.00 0.00 0.00 81 990.9
20260507023556 39 270 159.0 0.0 0.00 0.00 0.00 81 990.7
20260507022556 39 45 0.0 0.0 0.00 0.00 0.00 81 990.7
20260507021556 39 337 159.0 0.0 0.00 0.00 0.00 80 990.7
20260507020556 39 45 0.0 0.0 0.00 0.00 0.00 80 990.5
20260507015556 40 45 0.0 0.0 0.00 0.00 0.00 80 990.5
20260507014556 40 337 79.1 0.0 0.00 0.00 0.00 79 990.4
20260507013556 40 337 79.1 0.0 0.00 0.00 0.00 79 990.2
20260507012556 41 337 79.1 0.0 0.00 0.00 0.00 78 990.2
20260507011556 41 337 79.1 0.0 0.00 0.00 0.00 78 990.2
20260507010556 41 45 0.0 0.0 0.00 0.00 0.00 77 990.0
20260507005556 41 337 79.1 0.0 0.00 0.00 0.00 77 990.0
20260507004556 42 45 0.0 0.0 0.00 0.00 0.00 77 989.9
20260507003556 42 337 79.1 0.0 0.00 0.00 0.00 77 989.7
20260507002556 42 45 0.0 0.0 0.00 0.00 0.00 76 989.7
20260507001556 42 45 0.0 0.0 0.00 0.00 0.00 76 989.9
20260507000556 43 45 0.0 0.0 0.00 0.00 0.00 76 989.9
20260506235556 43 45 0.0 0.0 0.00 0.00 0.00 75 989.7
20260506234556 43 45 0.0 0.0 0.00 0.00 0.00 74 989.7
20260506233556 43 45 0.0 0.0 0.00 0.00 0.00 74 989.7
20260506232556 44 45 0.0 0.0 0.00 0.00 0.00 73 989.7
20260506231556 44 45 0.0 0.0 0.00 0.00 0.00 73 989.7
20260506230556 44 45 0.0 0.0 0.00 0.00 0.00 73 989.5
20260506225556 44 45 0.0 0.0 0.00 0.00 0.00 72 989.7
20260506224556 45 45 0.0 0.0 0.00 0.00 0.00 71 989.5
20260506223556 45 337 79.1 0.0 0.00 0.00 0.00 71 989.2
20260506222556 45 45 0.0 0.0 0.00 0.00 0.00 70 989.2
20260506221556 46 45 0.0 0.0 0.00 0.00 0.00 69 989.2
20260506220556 46 45 0.0 0.0 0.00 0.00 0.00 69 989.2
20260506215556 46 45 0.0 0.0 0.00 0.00 0.00 68 989.2
20260506214556 47 45 0.0 0.0 0.00 0.00 0.00 68 989.0
20260506213556 48 45 0.0 0.0 0.00 0.00 0.00 67 988.9
20260506212556 48 45 0.0 0.0 0.00 0.00 0.00 67 988.7
20260506211556 49 45 0.0 0.0 0.00 0.00 0.00 66 988.7
20260506210556 49 45 0.0 0.0 0.00 0.00 0.00 65 988.7
20260506205556 50 45 0.0 0.0 0.00 0.00 0.00 65 988.7
20260506204556 50 45 0.0 0.0 0.00 0.00 0.00 64 988.9
20260506203556 50 45 0.0 0.0 0.00 0.00 0.00 64 988.7
20260506202556 51 45 0.0 0.0 0.00 0.00 0.00 63 988.7
20260506201556 51 45 0.0 0.0 0.00 0.00 0.00 62 988.5
20260506200556 51 45 0.0 0.0 0.00 0.00 0.00 61 988.5
20260506195556 51 45 0.0 0.0 0.00 0.00 0.00 60 988.4
20260506194556 52 45 0.0 0.0 0.00 0.00 0.00 59 988.2
20260506193556 52 45 0.0 0.0 0.00 0.00 0.00 58 988.2
20260506192556 53 45 0.0 0.0 0.00 0.00 0.00 57 988.0
20260506191556 54 45 0.0 0.0 0.00 0.00 0.00 56 988.0
20260506190556 55 45 0.0 0.0 0.00 0.00 0.00 55 988.0
20260506185556 55 45 0.0 0.0 0.00 0.00 0.00 54 987.7
20260506184556 55 45 0.0 0.0 0.00 0.00 0.00 53 987.7
20260506183556 56 45 0.0 0.0 0.00 0.00 0.00 52 987.5
20260506182556 56 45 0.0 0.0 0.00 0.00 0.00 51 987.4
20260506181556 57 45 0.0 0.0 0.00 0.00 0.00 50 987.4
20260506180556 57 315 159.0 0.0 0.00 0.00 0.00 49 987.2
20260506175556 58 45 0.0 0.0 0.00 0.00 0.00 48 987.2
20260506174556 59 315 159.0 0.0 0.00 0.00 0.00 47 987.2
20260506173556 59 67 0.0 0.0 0.00 0.00 0.00 47 987.0
20260506172556 60 315 159.0 0.0 0.00 0.00 0.00 46 987.0
20260506171556 61 67 0.0 0.0 0.00 0.00 0.00 45 986.9
20260506170556 61 67 0.0 0.0 0.00 0.00 0.00 44 987.0
20260506165556 62 22 0.0 0.0 0.00 0.00 0.00 44 987.0
20260506164556 62 45 0.0 0.0 0.00 0.00 0.00 44 986.9
20260506163556 62 45 0.0 0.0 0.00 0.00 0.00 43 986.9
20260506162556 62 45 0.0 0.0 0.00 0.00 0.00 43 986.7
20260506161556 62 225 159.0 0.0 0.00 0.00 0.00 43 986.9
20260506160556 62 45 0.0 0.0 0.00 0.00 0.00 43 986.7
20260506155556 62 45 0.0 0.0 0.00 0.00 0.00 43 986.7
20260506154556 62 315 79.1 0.0 0.00 0.00 0.00 43 986.7
20260506153556 62 315 79.1 0.0 0.00 0.00 0.00 43 986.9
20260506152556 62 45 0.0 0.0 0.00 0.00 0.00 43 986.7
20260506151556 62 45 0.0 0.0 0.00 0.00 0.00 42 986.7
20260506150556 63 315 39.1 0.0 0.00 0.00 0.00 42 986.7
20260506145556 63 315 39.1 0.0 0.00 0.00 0.00 44 986.7
20260506144556 64 67 0.0 0.0 0.00 0.00 0.00 43 986.9
20260506143556 64 67 0.0 0.0 0.00 0.00 0.00 43 986.7
20260506142556 64 22 0.0 0.0 0.00 0.00 0.00 45 986.9
20260506141556 64 22 0.0 0.0 0.00 0.00 0.00 45 986.9
20260506140556 64 22 0.0 0.0 0.00 0.00 0.00 46 987.0
20260506135556 64 337 119.0 0.0 0.00 0.00 0.00 46 986.9
20260506134556 64 45 0.0 0.0 0.00 0.00 0.00 46 986.9
20260506133556 64 292 79.1 0.0 0.00 0.00 0.00 46 986.9
20260506132556 64 270 79.1 0.0 0.00 0.00 0.00 46 986.7
20260506131556 65 22 0.0 0.0 0.00 0.00 0.00 46 986.5
20260506130556 65 22 0.0 0.0 0.00 0.00 0.00 47 986.5
20260506125556 64 270 79.1 0.0 0.00 0.00 0.00 46 986.5
20260506124556 64 22 0.0 0.0 0.00 0.00 0.00 47 986.5
20260506123556 64 337 49.5 0.0 0.00 0.00 0.00 47 986.5
20260506122556 64 45 0.0 0.0 0.00 0.00 0.00 47 986.5
20260506121556 64 270 79.1 0.0 0.00 0.00 0.00 48 986.5
20260506120556 63 45 0.0 0.0 0.00 0.00 0.00 49 986.5
20260506115556 63 45 0.0 0.0 0.00 0.00 0.00 49 986.4
20260506114556 63 45 0.0 0.0 0.00 0.00 0.00 48 986.4
20260506113556 63 22 0.0 0.0 0.00 0.00 0.00 50 986.4
20260506112556 63 22 0.0 0.0 0.00 0.00 0.00 50 986.5
20260506111556 62 45 0.0 0.0 0.00 0.00 0.00 51 986.7
20260506110556 62 45 0.0 0.0 0.00 0.00 0.00 50 986.7
20260506105556 62 22 0.0 0.0 0.00 0.00 0.00 50 986.7
20260506104556 61 45 0.0 0.0 0.00 0.00 0.00 51 986.7
20260506103556 61 45 0.0 0.0 0.00 0.00 0.00 52 986.7
20260506102556 61 22 0.0 0.0 0.00 0.00 0.00 52 986.7
20260506101556 61 22 0.0 0.0 0.00 0.00 0.00 52 986.7
20260506100556 60 337 9.6 0.0 0.00 0.00 0.00 54 986.7
20260506095556 60 45 0.0 0.0 0.00 0.00 0.00 54 986.9
20260506094556 60 22 0.0 0.0 0.00 0.00 0.00 56 986.9
20260506093556 59 22 0.0 0.0 0.00 0.00 0.00 57 987.0
20260506092556 59 270 79.1 0.0 0.00 0.00 0.00 57 987.0
20260506091556 59 22 0.0 0.0 0.00 0.00 0.00 59 987.0
20260506090556 58 22 0.0 0.0 0.00 0.00 0.00 59 986.9
20260506085556 58 22 0.0 0.0 0.00 0.00 0.00 61 986.7
20260506084556 57 22 0.0 0.0 0.00 0.00 0.00 61 986.9